Location: Friaudour
(46.0460°N, 1.2873°E)
Time: 20:22:17
(UTC+00:00)

NOSS 2 (F) - Pass Details

Date: 14 July 2020
Orbit: 394 x 1456 km, 63.3° (Epoch: 14 August)

Event Time Altitude Azimuth Distance (km) Brightness Sun altitude
Rises 02:28:18 0° 320° (NW) 2,390 8.8 -14.5°
Reaches altitude 10° 02:30:25 10° 319° (NW) 1,470 7.7 -14.3°
Maximum altitude 02:33:33 80° 233° (SW) 406 4.5 -14.0°
Drops below altitude 10° 02:36:40 10° 146° (SE) 1,461 7.3 -13.7°
Sets 02:38:46 0° 145° (SE) 2,374 8.4 -13.5°
